Flag for U.S.A. Weather past 2 weeks in Visalia, California, U.S.A.

Now
102 °F

Sunny.


Feels Like: 100 °F
Forecast: 67 / 93 °F
Wind: 8 mph from East

Location: Hanford Municipal Airport

Current Time: Aug 28, 2015 at 5:51:28 PM

Latest Report: Aug 28, 2015 at 4:53 PM


Visibility: 10 mi

Pressure: 29.78 "Hg

Humidity: 20%

Dew point: 53 °F

Location of VisaliaLocation

Historic Weather in Visalia — Graph

°F

Visalia temperature yesterday

Maximum temperature yesterday: 102 °F (at 4:53 PM)
Minimum temperature yesterday: 65 °F (at 6:53 AM)
Average temperature yesterday: 87 °F

Past Weeks' High & Low Weather Summary

 TemperatureHumidityPressure
High107 °F (Aug 17, 3:53 PM)79% (Aug 16, 6:53 AM)30.04 "Hg (Aug 16, 6:53 AM)
Low65 °F (Aug 20, 6:53 AM)11% (Aug 17, 3:53 PM)29.72 "Hg (Aug 17, 5:53 PM)
Average83 °F39%29.87 "Hg
* Reported Aug 13 3:53 PM — Aug 28 3:53 PM, Visalia, Weather by CustomWeather, © 2015

Note: Actual official high and low records may vary slightly from our data, if they occured in-between our weather recording intervals... More about our weather records

Advertising

Visalia weather history for previous 24 hours

 ConditionsComfort  
Time TempWeatherWind HumidityBarometerVisibility
3:53 PM
Fri, Aug 28
102 °FSunny.6 mph20%29.80 "Hg10 mi
2:53 PM101 °FSunny.3 mph18%29.82 "Hg10 mi
1:53 PM100 °FSunny.7 mph18%29.85 "Hg10 mi
12:53 PM97 °FSunny.No wind20%29.87 "Hg10 mi
11:53 AM94 °FSunny.No wind24%29.90 "Hg10 mi
10:53 AM90 °FSunny.9 mph26%29.91 "Hg10 mi
9:53 AM86 °FSunny.5 mph31%29.92 "Hg10 mi
8:53 AM81 °FSunny.No wind37%29.92 "Hg10 mi
7:53 AM73 °FSunny.5 mph50%29.92 "Hg10 mi
6:53 AM65 °FClear.5 mph70%29.91 "Hg9 mi
5:53 AM66 °FClear.No wind68%29.90 "Hg10 mi
4:53 AM70 °FClear.5 mph57%29.90 "Hg10 mi
3:53 AM74 °FClear.6 mph46%29.90 "Hg10 mi
2:53 AM75 °FClear.6 mph43%29.90 "Hg10 mi
1:53 AM79 °FClear.10 mph36%29.90 "Hg10 mi
12:53 AM81 °FClear.9 mph35%29.91 "Hg10 mi
11:53 PM
Thu, Aug 27
83 °FClear.9 mph34%29.90 "Hg10 mi
10:53 PM86 °FClear.8 mph32%29.90 "Hg10 mi
9:53 PM90 °FClear.9 mph27%29.90 "Hg10 mi
8:53 PM92 °FClear.5 mph24%29.89 "Hg10 mi
7:53 PM92 °FSunny.5 mph25%29.87 "Hg10 mi
6:53 PM99 °FSunny.6 mph17%29.86 "Hg10 mi
5:53 PM102 °FSunny.5 mph16%29.88 "Hg10 mi
Weather by CustomWeather, © 2015

See weather overviewHow to use our weather pages